• Currently

    Reported at Covington / Cincinnati, Cincinnati / Northern Kentucky International Airport, KY
    11:52 AM EST SAT FEB 25 2017
  • 34°F1°C
  • Overcast
    Overcast
  • Feels Like:25°F-4°CDew Point:25°F-4°CHumidity:70% Winds:SSW 15 mph 24 kph
    Pressure:29.85 in1011 hPaVisibility:10.00 miles16090.00 meters
Time Weather Temp Dew Point
Humidity Winds Visibility Pressure Precipitation
1 hr 24 hr
Saturday, February 25
13:51 13:51 Cloudy Cloudy 32°F0°C 19°F-7°C 60% W 18 mphW 30 kph 10.0 miles16.1 km 29.97 in1015 hPa 0.00 in0.00 mm --
13:30 13:30 Cloudy Cloudy 32°F0°C 19°F-7°C 60% W 18 mphW 30 kph 10.0 miles16.1 km 29.94 in1014 hPa 0.00 in0.00 mm --
13:11 13:11 Cloudy Cloudy 32°F0°C 19°F-7°C 60% W 18 mphW 30 kph 10.0 miles16.1 km 29.94 in1014 hPa 0.00 in0.00 mm --
12:51 12:51 Cloudy Cloudy 32°F0°C 19°F-7°C 60% W 16 mphW 26 kph 10.0 miles16.1 km 29.94 in1014 hPa 0.00 in0.00 mm --
12:30 12:30 Cloudy Cloudy 32°F0°C 19°F-7°C 60% W 17 mphW 28 kph 10.0 miles16.1 km 29.94 in1014 hPa 0.00 in0.00 mm --
12:11 12:11 Cloudy Cloudy 32°F0°C 21°F-6°C 64% W 18 mphW 30 kph 10.0 miles16.1 km 29.91 in1013 hPa 0.00 in0.00 mm --
11:51 11:51 Cloudy Cloudy 32°F0°C 23°F-5°C 69% W 16 mphW 26 kph 10.0 miles16.1 km 29.91 in1013 hPa 0.00 in0.00 mm --
11:30 11:30 Cloudy Cloudy 32°F0°C 23°F-5°C 69% W 18 mphW 30 kph 10.0 miles16.1 km 29.91 in1013 hPa 0.00 in0.00 mm --
11:11 11:11 Cloudy Cloudy 32°F0°C 23°F-5°C 69% W 17 mphW 28 kph 10.0 miles16.1 km 29.88 in1012 hPa 0.00 in0.00 mm --
10:51 10:51 Cloudy Cloudy 32°F0°C 27°F-3°C 80% W 12 mphW 19 kph 10.0 miles16.1 km 29.88 in1012 hPa 0.00 in0.00 mm --
10:30 10:30 Cloudy Cloudy 32°F0°C 25°F-4°C 75% WSW 16 mphWSW 26 kph 10.0 miles16.1 km 29.88 in1012 hPa 0.00 in0.00 mm --
10:11 10:11 Cloudy Cloudy 32°F0°C 27°F-3°C 80% WSW 13 mphWSW 20 kph 10.0 miles16.1 km 29.85 in1011 hPa 0.00 in0.00 mm --
09:51 09:51 Cloudy Cloudy 34°F1°C 23°F-5°C 65% W 15 mphW 24 kph 10.0 miles16.1 km 29.85 in1011 hPa 0.00 in0.00 mm --
09:30 09:30 Cloudy Cloudy 34°F1°C 25°F-4°C 70% WSW 10 mphWSW 17 kph 10.0 miles16.1 km 29.83 in1010 hPa 0.00 in0.00 mm --
09:11 09:11 Cloudy Cloudy 34°F1°C 25°F-4°C 70% W 12 mphW 19 kph 10.0 miles16.1 km 29.83 in1010 hPa 0.00 in0.00 mm --
08:51 08:51 Cloudy Cloudy 34°F1°C 23°F-5°C 65% W 13 mphW 20 kph 10.0 miles16.1 km 29.83 in1010 hPa 0.00 in0.00 mm --
08:30 08:30 Cloudy Cloudy 34°F1°C 23°F-5°C 65% W 16 mphW 26 kph 10.0 miles16.1 km 29.8 in1009 hPa 0.00 in0.00 mm --
08:11 08:11 Cloudy Cloudy 36°F2°C 23°F-5°C 60% W 21 mphW 33 kph 10.0 miles16.1 km 29.8 in1009 hPa 0.00 in0.00 mm --
07:51 07:51 Cloudy Cloudy 36°F2°C 25°F-4°C 65% W 18 mphW 30 kph 10.0 miles16.1 km 29.8 in1009 hPa 0.00 in0.00 mm --
07:30 07:30 Cloudy Cloudy 37°F3°C 27°F-3°C 65% W 15 mphW 24 kph 10.0 miles16.1 km 29.77 in1008 hPa 0.00 in0.00 mm --
07:11 07:11 Cloudy Cloudy 37°F3°C 28°F-2°C 70% W 14 mphW 22 kph 10.0 miles16.1 km 29.77 in1008 hPa 0.00 in0.00 mm --
06:51 06:51 Cloudy Cloudy 39°F4°C 30°F-1°C 70% W 22 mphW 35 kph 10.0 miles16.1 km 29.77 in1008 hPa 0.00 in0.00 mm --
06:30 06:30 Cloudy Cloudy 41°F5°C 32°F0°C 70% WSW 17 mphWSW 28 kph 10.0 miles16.1 km 29.74 in1007 hPa 0.00 in0.00 mm --
06:11 06:11 Cloudy Cloudy 43°F6°C 32°F0°C 66% W 9 mphW 15 kph 10.0 miles16.1 km 29.74 in1007 hPa 0.00 in0.00 mm --
05:51 05:51 Cloudy Cloudy 43°F6°C 32°F0°C 66% WSW 7 mphWSW 11 kph 10.0 miles16.1 km 29.74 in1007 hPa 0.00 in0.00 mm --
05:30 05:30 Mostly Cloudy Mostly Cloudy 43°F6°C 32°F0°C 66% WSW 8 mphWSW 13 kph 10.0 miles16.1 km 29.74 in1007 hPa 0.00 in0.00 mm --
05:11 05:11 Partly Cloudy Partly Cloudy 43°F6°C 32°F0°C 66% W 7 mphW 11 kph 10.0 miles16.1 km 29.71 in1006 hPa 0.00 in0.00 mm --
04:51 04:51 Partly Cloudy Partly Cloudy 43°F6°C 32°F0°C 66% WSW 5 mphWSW 7 kph 10.0 miles16.1 km 29.71 in1006 hPa 0.00 in0.00 mm --
04:30 04:30 Clear Clear 43°F6°C 32°F0°C 66% W 5 mphW 7 kph 10.0 miles16.1 km 29.71 in1006 hPa 0.00 in0.00 mm --
04:11 04:11 Clear Clear 43°F6°C 32°F0°C 66% W 7 mphW 11 kph 10.0 miles16.1 km 29.71 in1006 hPa 0.00 in0.00 mm --
03:50 03:50 Clear Clear 45°F7°C 32°F0°C 61% W 7 mphW 11 kph 10.0 miles16.1 km 29.71 in1006 hPa 0.00 in0.00 mm --
03:31 03:31 Clear Clear 45°F7°C 32°F0°C 61% W 9 mphW 15 kph 10.0 miles16.1 km 29.71 in1006 hPa 0.00 in0.00 mm --
03:11 03:11 Partly Cloudy Partly Cloudy 45°F7°C 32°F0°C 61% W 7 mphW 11 kph 10.0 miles16.1 km 29.71 in1006 hPa 0.00 in0.00 mm --
02:50 02:50 Mostly Cloudy Mostly Cloudy 46°F8°C 34°F1°C 62% W 12 mphW 19 kph 10.0 miles16.1 km 29.71 in1006 hPa 0.00 in0.00 mm --
02:31 02:31 Mostly Cloudy Mostly Cloudy 48°F9°C 39°F4°C 71% WNW 10 mphWNW 17 kph 10.0 miles16.1 km 29.68 in1005 hPa 0.00 in0.00 mm --
02:11 02:11 Cloudy Cloudy 50°F10°C 41°F5°C 71% WNW 8 mphWNW 13 kph 10.0 miles16.1 km 29.68 in1005 hPa 0.00 in0.00 mm --
01:50 01:50 Cloudy Cloudy 50°F10°C 41°F5°C 71% WNW 7 mphWNW 11 kph 10.0 miles16.1 km 29.68 in1005 hPa 0.00 in0.00 mm --
01:31 01:31 Cloudy Cloudy 50°F10°C 41°F5°C 71% WNW 7 mphWNW 11 kph 10.0 miles16.1 km 29.68 in1005 hPa 0.00 in0.00 mm --
01:11 01:11 Mostly Cloudy Mostly Cloudy 50°F10°C 37°F3°C 62% WNW 9 mphWNW 15 kph 10.0 miles16.1 km 29.65 in1004 hPa 0.00 in0.00 mm --